Location: Palmerston North
(40.3500°S, 175.6170°E)
Time: 04:23:31
(UTC+13:00)

Cosmos 2208 Rocket - Pass Details

Date: 24 January 2019
Orbit: 754 x 806 km, 74.0° (Epoch: 22 February)

Event Time Altitude Azimuth Distance (km) Brightness Sun altitude
Rises 21:56:46 0° 202° (SSW) 3,247 8.4 -12.6°
Reaches altitude 10° 21:59:09 10° 203° (SSW) 2,317 7.5 -12.9°
Maximum altitude 22:04:23 72° 286° (WNW) 810 4.2 -13.7°
Enters shadow 22:09:01 13° 9° (N) 2,086 5.8 -14.4°
